Skip Page Navigation
NASA JPL Caltech
NASA Logo - Jet Propulsion Laboratory + View the NASA Portal
+ Near-Earth Object (NEO) Program
Search JPL
JPL Home Earth Solar System Stars & Galaxies Technology
JPL Solar System Dynamics
BODIES ORBITS EPHEMERIDES TOOLS PHYSICAL DATA DISCOVERY FAQ SITE MAP
JPL Small-Body Database Browser
Search: [ help ]  
3537 Jurgen (1982 VT)
Classification: Main-belt Asteroid          SPK-ID: 2003537
Ephemeris | Orbit Diagram | Orbital Elements | Physical Parameters | Discovery Circumstances | Close-Approach Data ]

[ show orbit diagram ]
Orbital Elements at Epoch 2457000.5 (2014-Dec-09.0) TDB
Reference: JPL 14 (heliocentric ecliptic J2000)
 Element Value Uncertainty (1-sigma)   Units 
e .1571586207156397 6.0763e-08  
a 2.58798053022778 3.0002e-08 AU
q 2.181257079658252 1.7193e-07 AU
i 15.17307047062382 8.8217e-06 deg
node 44.26160967926742 2.0772e-05 deg
peri 277.7927029756485 4.2211e-05 deg
M 322.0489554214759 3.7408e-05 deg
tp 2457160.810204194862
(2015-May-18.31020419)
0.00015791 JED
period 1520.687352642945
4.16
2.6444e-05
7.24e-08
d
yr
n .2367350523263854 4.1166e-09 deg/d
Q 2.994703980797308 3.4717e-08 AU
  Orbit Determination Parameters
   # obs. used (total)      989  
   data-arc span      11619 days (31.81 yr)  
   first obs. used      1982-10-20  
   last obs. used      2014-08-12  
   planetary ephem.      DE431  
   SB-pert. ephem.      SB431-BIG16  
   condition code      0  
   fit RMS      .45573  
   data source      ORB  
   producer      Otto Matic  
   solution date      2014-Sep-12 13:43:50  

Additional Information
 Earth MOID = 1.23237 AU 
 T_jup = 3.355 
[ show covariance matrix ]

Ephemeris | Orbit Diagram | Orbital Elements | Physical Parameters | Discovery Circumstances | Close-Approach Data ]

Physical Parameter Table
Parameter Symbol Value Units Sigma Reference Notes
absolute magnitude H 12.4 mag n/a MPO302084  
rotation period rot_per 14. h n/a Asteroid Lightcurve DataBase (Rev. 2014-Mar-01) lower-limit; Result based on fragmentary lightcurve(s), may be completely wrong.
Published Reference List:
[Alvarez-Candal, A.; Duffard, R.; Angeli, C.A.; Lazzaro, D.; Fernandez, S. (2004) Icarus 172, 388-401.]

3537 Jurgen (1982 VT)          Discovered 1982-Nov-15 by Bowell, E. at Flagstaff (AM) (688)
Discovered at the Anderson Mesa station, which is operated by the Lowell Observatory.
Reference: DISCOVERY.DBLast Updated: 2003-08-29

[ show close-approach data ]
Alternate Designations
 1982 VT = 1985 JE1 
Ephemeris | Orbit Diagram | Orbital Elements | Physical Parameters | Discovery Circumstances | Close-Approach Data ]
ABOUT SSD CREDITS/AWARDS PRIVACY/COPYRIGHT GLOSSARY LINKS
FirstGov 2014-Dec-18 22:24 UT
(server date/time)  
NASA Home Page
Site Manager:   Donald K. Yeomans
Webmaster  Alan B. Chamberlin